Flag for Tajikistan Weather past 2 weeks in Dushanbe, Tajikistan

Now
36 °F

Fog.


Feels Like: 36 °F
Forecast: 35 / 46 °F
Wind: No wind

Location: Dushanbe Airport

Current Time: Dec 20, 2014 at 9:26:55 AM

Latest Report: Dec 20, 2014 at 8:30 AM


Visibility: 1 mi

Pressure: 30.21 "Hg

Humidity: 75%

Dew point: 28 °F

Location of DushanbeLocation

Historic Weather in Dushanbe — Graph

°F

Dushanbe temperature yesterday

Maximum temperature yesterday: 46 °F (at 3:00 PM)
Minimum temperature yesterday: 32 °F (at 4:00 AM)
Average temperature yesterday: 38 °F

Past Weeks' High & Low Weather Summary

 TemperatureHumidityPressure
High57 °F (Dec 16, 12:30 PM)100% (Dec 5, 10:00 AM)30.72 "Hg (Dec 5, 10:00 AM)
Low21 °F (Dec 9, 7:30 AM)13% (Dec 16, 1:00 PM)30.12 "Hg (Dec 18, 5:00 PM)
Average37 °F60%30.34 "Hg
* Reported Dec 5 8:00 AM — Dec 20 8:00 AM, Dushanbe, Weather by CustomWeather, © 2014

Note: Actual official high and low records may vary slightly from our data, if they occured in-between our weather recording intervals... More about our weather records

Advertising

Dushanbe weather history for previous 24 hours

 ConditionsComfort  
Time TempWeatherWind HumidityBarometerVisibility
8:00 AM
Dec 20
34 °FFog.1 mph81%30.21 "Hg1 mi
7:30 AM36 °FFog.3 mph75%30.21 "Hg2 mi
7:00 AM34 °FFog.1 mph81%30.21 "Hg2 mi
6:30 AM34 °FFog.3 mph81%30.21 "Hg2 mi
6:00 AM36 °FPassing clouds.No wind75%30.21 "Hg4 mi
5:30 AM37 °FPassing clouds.1 mph70%30.21 "Hg4 mi
5:00 AM36 °FFog.1 mph75%30.21 "Hg3 mi
4:30 AM36 °FFog.No wind75%30.18 "Hg2 mi
4:00 AM36 °FFog.1 mph75%30.18 "Hg2 mi
3:30 AM34 °FFog.1 mph81%30.21 "Hg3 mi
3:00 AM34 °FFog.1 mph81%30.21 "Hg3 mi
2:30 AM34 °FFog.No wind81%30.21 "Hg3 mi
1:30 AM34 °FFog.1 mph81%30.24 "Hg3 mi
1:00 AM34 °FFog.3 mph87%30.24 "Hg2 mi
12:30 AM37 °FFog.1 mph81%30.24 "Hg2 mi
12:00 AM34 °FFog.No wind87%30.24 "Hg2 mi
11:30 PM
Dec 19
34 °FFog.No wind87%30.27 "Hg2 mi
11:00 PM36 °FFog.1 mph81%30.27 "Hg2 mi
10:30 PM34 °FFog.No wind87%30.27 "Hg1 mi
10:00 PM36 °FFog.1 mph81%30.27 "Hg2 mi
9:30 PM36 °FFog.1 mph81%30.30 "Hg1 mi
9:00 PM36 °FFog.No wind81%30.30 "Hg2 mi
8:30 PM37 °FFog.1 mph81%30.30 "Hg1 mi
8:00 PM37 °FFog.1 mph81%30.30 "Hg1 mi
7:30 PM39 °FFog.No wind81%30.30 "Hg1 mi
7:00 PM39 °FFog.No wind81%30.30 "Hg1 mi
6:30 PM41 °FFog.No wind76%30.30 "Hg1 mi
6:00 PM39 °FFog.1 mph75%30.30 "Hg2 mi
5:30 PM43 °FFog.No wind71%30.30 "Hg2 mi
5:00 PM43 °FPassing clouds.No wind71%30.30 "Hg3 mi
4:30 PM45 °FPassing clouds.1 mph61%30.33 "Hg3 mi
4:00 PM46 °FPassing clouds.3 mph62%30.33 "Hg3 mi
3:30 PM46 °FScattered clouds.3 mph62%30.33 "Hg3 mi
3:00 PM46 °FBroken clouds.6 mph62%30.33 "Hg3 mi
2:30 PM45 °FPartly sunny.3 mph66%30.33 "Hg3 mi
2:00 PM45 °FFog.3 mph61%30.36 "Hg3 mi
1:30 PM45 °FFog.3 mph66%30.36 "Hg3 mi
1:00 PM43 °FFog.1 mph76%30.36 "Hg2 mi
12:30 PM43 °FFog.3 mph76%30.36 "Hg2 mi
12:00 PM41 °FFog.1 mph81%30.39 "Hg1 mi
11:30 AM39 °FFog.3 mph87%30.39 "Hg1 mi
11:00 AM37 °FFog.3 mph87%30.39 "Hg1 mi
10:30 AM37 °FFog.1 mph87%30.39 "Hg1 mi
10:00 AM36 °FFog.1 mph93%30.39 "Hg1 mi
9:30 AM34 °FFog.1 mph93%30.39 "Hg1 mi
9:00 AM34 °FFog.No wind93%30.39 "Hg1 mi
Weather by CustomWeather, © 2014

See weather overviewHow to use our weather pages